QPF
0.00 0.00 0.00 0.00 0.00 0.00 0.00 0.00 0.00 0.00 0.00 0.00 0.00 0.00 0.00 0.00 0.00 0.00 0.00 0.00 0.00 0.00 0.00 0.00 0.00 0.00 0.00 0.00 0.00 0.01 0.01 0.02 0.01 0.00 0.00 0.00 0.00 0.00 0.00 0.00 0.00 0.00 0.00
0.00 0.00 0.00 0.00 0.00 0.00 0.00 0.00 0.00 0.00 0.00 0.00 0.00 0.00 0.00 0.00 0.00 0.00 0.00 0.00 0.00 0.00 0.00 0.00 0.00 0.00 0.00 0.00 0.00 0.01 0.01 0.01 0.01 0.01 0.00 0.00 0.00 0.00 0.00 0.00 0.00 0.00 0.00
0.00 0.00 0.00 0.00 0.00 0.00 0.00 0.00 0.00 0.00 0.00 0.00 0.00 0.00 0.00 0.00 0.00 0.00 0.00 0.00 0.00 0.00 0.00 0.00 0.00 0.00 0.00 0.00 0.00 0.00 0.00 0.01 0.01 0.01 0.00 0.00 0.00 0.00 0.00 0.00 0.00 0.00 0.00
0.00 0.00 0.00 0.00 0.00 0.00 0.00 0.00 0.00 0.00 0.00 0.00 0.00 0.00 0.00 0.00 0.00 0.00 0.00 0.00 0.00 0.00 0.00 0.00 0.00 0.00 0.00 0.00 0.00 0.00 0.00 0.00 0.01 0.01 0.01 0.00 0.00 0.00 0.00 0.00 0.00 0.00 0.00
0.00 0.00 0.00 0.00 0.00 0.00 0.00 0.00 0.00 0.00 0.00 0.00 0.00 0.00 0.00 0.00 0.00 0.00 0.00 0.00 0.00 0.00 0.00 0.00 0.00 0.00 0.00 0.00 0.00 0.00 0.00 0.00 0.01 0.01 0.01 0.01 0.01 0.01 0.01 0.01 0.01 0.01 0.01
0.00 0.00 0.00 0.00 0.00 0.00 0.00 0.00 0.00 0.00 0.00 0.00 0.00 0.00 0.00 0.00 0.00 0.00 0.00 0.00 0.00 0.00 0.00 0.00 0.00 0.00 0.00 0.00 0.00 0.00 0.00 0.01 0.01 0.01 0.01 0.01 0.01 0.01 0.01 0.01 0.02 0.02 0.02
0.00 0.00 0.00 0.00 0.00 0.00 0.00 0.00 0.00 0.00 0.00 0.00 0.00 0.00 0.00 0.00 0.00 0.00 0.00 0.00 0.00 0.00 0.00 0.00 0.00 0.00 0.00 0.00 0.00 0.00 0.00 0.01 0.01 0.01 0.02 0.02 0.02 0.01 0.02 0.03 0.03 0.04 0.04
0.00 0.00 0.00 0.00 0.00 0.00 0.00 0.00 0.00 0.00 0.00 0.00 0.00 0.00 0.00 0.00 0.00 0.00 0.00 0.00 0.00 0.00 0.00 0.00 0.00 0.00 0.00 0.00 0.00 0.00 0.00 0.00 0.01 0.01 0.01 0.02 0.02 0.02 0.03 0.04 0.05 0.06 0.05
0.00 0.00 0.00 0.00 0.00 0.00 0.00 0.00 0.00 0.00 0.00 0.00 0.00 0.00 0.00 0.00 0.00 0.00 0.00 0.00 0.00 0.00 0.00 0.00 0.00 0.00 0.00 0.00 0.01 0.01 0.00 0.00 0.01 0.01 0.01 0.02 0.02 0.02 0.03 0.04 0.05 0.06 0.06
0.00 0.00 0.00 0.00 0.00 0.00 0.00 0.00 0.00 0.00 0.00 0.00 0.00 0.00 0.00 0.00 0.00 0.00 0.00 0.00 0.00 0.00 0.00 0.00 0.00 0.00 0.01 0.01 0.01 0.01 0.02 0.01 0.01 0.01 0.01 0.01 0.01 0.01 0.02 0.03 0.06 0.08 0.09
0.00 0.00 0.00 0.00 0.00 0.00 0.00 0.00 0.00 0.00 0.00 0.00 0.00 0.00 0.00 0.00 0.00 0.00 0.00 0.00 0.00 0.00 0.00 0.00 0.00 0.00 0.01 0.01 0.01 0.01 0.02 0.02 0.02 0.01 0.01 0.01 0.01 0.02 0.02 0.03 0.05 0.08 0.11
0.00 0.00 0.00 0.00 0.00 0.00 0.00 0.00 0.00 0.00 0.00 0.00 0.00 0.00 0.00 0.00 0.00 0.00 0.00 0.00 0.00 0.01 0.00 0.00 0.00 0.01 0.01 0.01 0.01 0.01 0.01 0.01 0.01 0.02 0.02 0.02 0.03 0.03 0.04 0.04 0.05 0.06 0.08
0.00 0.00 0.00 0.00 0.00 0.00 0.00 0.00 0.00 0.00 0.00 0.00 0.00 0.00 0.00 0.00 0.00 0.00 0.00 0.00 0.00 0.00 0.00 0.00 0.00 0.01 0.01 0.01 0.01 0.01 0.01 0.01 0.02 0.03 0.03 0.03 0.03 0.03 0.04 0.04 0.04 0.05 0.05
0.00 0.00 0.00 0.00 0.00 0.00 0.00 0.00 0.00 0.00 0.00 0.00 0.00 0.00 0.00 0.00 0.00 0.00 0.00 0.00 0.01 0.01 0.00 0.00 0.00 0.01 0.00 0.00 0.01 0.01 0.01 0.02 0.03 0.03 0.03 0.03 0.03 0.03 0.03 0.04 0.04 0.04 0.04
0.00 0.00 0.00 0.00 0.00 0.00 0.00 0.00 0.00 0.00 0.00 0.00 0.00 0.01 0.01 0.01 0.00 0.01 0.01 0.01 0.01 0.01 0.02 0.01 0.01 0.01 0.01 0.01 0.01 0.01 0.01 0.02 0.02 0.03 0.03 0.03 0.03 0.03 0.03 0.03 0.04 0.04 0.04
0.00 0.00 0.00 0.00 0.00 0.00 0.00 0.00 0.00 0.00 0.00 0.00 0.00 0.01 0.01 0.01 0.01 0.01 0.01 0.01 0.01 0.01 0.02 0.02 0.01 0.01 0.01 0.01 0.01 0.02 0.02 0.02 0.02 0.02 0.03 0.03 0.03 0.03 0.03 0.03 0.03 0.03 0.03
0.00 0.00 0.00 0.00 0.00 0.00 0.00 0.00 0.00 0.00 0.00 0.00 0.00 0.00 0.01 0.01 0.01 0.01 0.01 0.01 0.01 0.01 0.02 0.02 0.01 0.02 0.02 0.02 0.02 0.02 0.02 0.02 0.02 0.02 0.02 0.02 0.02 0.03 0.03 0.02 0.02 0.02 0.02
0.00 0.00 0.00 0.00 0.00 0.00 0.00 0.00 0.00 0.00 0.00 0.00 0.00 0.00 0.00 0.01 0.01 0.01 0.01 0.01 0.01 0.01 0.02 0.02 0.02 0.02 0.02 0.02 0.02 0.02 0.02 0.02 0.02 0.02 0.02 0.02 0.02 0.02 0.02 0.02 0.02 0.02 0.02
0.00 0.00 0.00 0.00 0.00 0.00 0.00 0.00 0.00 0.00 0.00 0.00 0.00 0.00 0.00 0.01 0.01 0.01 0.01 0.02 0.02 0.02 0.02 0.02 0.02 0.02 0.02 0.02 0.02 0.02 0.02 0.02 0.02 0.02 0.02 0.02 0.02 0.02 0.02 0.02 0.02 0.02 0.02
0.00 0.00 0.00 0.00 0.00 0.00 0.00 0.00 0.00 0.00 0.01 0.01 0.01 0.01 0.01 0.01 0.01 0.01 0.01 0.02 0.02 0.02 0.02 0.02 0.02 0.02 0.02 0.02 0.02 0.02 0.02 0.02 0.01 0.02 0.02 0.01 0.01 0.02 0.02 0.02 0.02 0.01 0.01
0.00 0.00 0.00 0.00 0.00 0.00 0.00 0.00 0.00 0.01 0.01 0.01 0.01 0.01 0.01 0.02 0.01 0.01 0.01 0.02 0.02 0.02 0.02 0.02 0.02 0.02 0.02 0.02 0.02 0.02 0.02 0.01 0.01 0.01 0.01 0.01 0.01 0.01 0.01 0.01 0.01 0.01 0.01
0.00 0.00 0.00 0.00 0.00 0.00 0.00 0.00 0.00 0.01 0.01 0.01 0.01 0.01 0.01 0.01 0.01 0.01 0.01 0.02 0.02 0.02 0.02 0.02 0.02 0.02 0.02 0.02 0.02 0.01 0.01 0.01 0.01 0.01 0.01 0.01 0.01 0.01 0.01 0.01 0.01 0.01 0.01
0.00 0.00 0.00 0.00 0.00 0.00 0.00 0.00 0.00 0.01 0.01 0.01 0.01 0.01 0.01 0.01 0.01 0.02 0.02 0.02 0.02 0.02 0.02 0.02 0.02 0.02 0.01 0.01 0.01 0.01 0.01 0.01 0.01 0.01 0.00 0.00 0.00 0.00 0.00 0.00 0.00 0.01 0.01
0.00 0.00 0.00 0.00 0.00 0.00 0.00 0.00 0.00 0.01 0.01 0.01 0.01 0.01 0.01 0.01 0.02 0.02 0.02 0.02 0.02 0.02 0.02 0.01 0.01 0.01 0.01 0.01 0.01 0.01 0.01 0.00 0.00 0.00 0.00 0.00 0.00 0.00 0.00 0.00 0.00 0.00 0.00
0.00 0.00 0.00 0.00 0.00 0.00 0.00 0.00 0.00 0.01 0.01 0.01 0.01 0.01 0.01 0.01 0.02 0.02 0.02 0.01 0.01 0.01 0.01 0.01 0.01 0.01 0.00 0.00 0.00 0.00 0.00 0.00 0.00 0.00 0.00 0.00 0.00 0.00 0.00 0.00 0.00 0.00 0.00
0.00 0.00 0.00 0.00 0.00 0.00 0.00 0.00 0.01 0.01 0.01 0.01 0.01 0.01 0.01 0.01 0.01 0.01 0.01 0.01 0.01 0.01 0.01 0.01 0.01 0.00 0.00 0.00 0.00 0.00 0.00 0.00 0.00 0.00 0.00 0.00 0.00 0.00 0.00 0.00 0.00 0.00 0.00
MSLP
1020.55 1021.00 1021.46 1021.91 1022.31 1022.66 1022.97 1023.25 1023.50 1023.76 1024.01 1024.25 1024.46 1024.61 1024.70 1024.69 1024.61 1024.46 1024.27 1024.09 1023.93 1023.81 1023.73 1023.68 1023.61 1023.49 1023.27 1022.92 1022.43 1021.81 1021.09 1020.31 1019.51 1018.75 1018.07 1017.48 1016.98 1016.56 1016.20 1015.86 1015.53 1015.18 1014.83
1021.46 1021.94 1022.40 1022.84 1023.21 1023.52 1023.79 1024.02 1024.23 1024.44 1024.66 1024.86 1025.04 1025.17 1025.23 1025.22 1025.12 1024.96 1024.76 1024.55 1024.36 1024.21 1024.10 1024.00 1023.90 1023.76 1023.53 1023.18 1022.70 1022.09 1021.39 1020.62 1019.82 1019.04 1018.32 1017.66 1017.08 1016.55 1016.07 1015.61 1015.15 1014.69 1014.23
1022.33 1022.84 1023.31 1023.72 1024.06 1024.33 1024.54 1024.72 1024.88 1025.04 1025.21 1025.38 1025.52 1025.63 1025.67 1025.64 1025.54 1025.37 1025.17 1024.95 1024.74 1024.56 1024.42 1024.29 1024.16 1023.99 1023.75 1023.40 1022.95 1022.38 1021.71 1020.97 1020.20 1019.44 1018.70 1018.00 1017.36 1016.75 1016.16 1015.59 1015.02 1014.45 1013.87
1023.11 1023.64 1024.11 1024.49 1024.79 1025.01 1025.18 1025.30 1025.41 1025.52 1025.64 1025.77 1025.88 1025.96 1025.98 1025.94 1025.84 1025.67 1025.46 1025.24 1025.02 1024.82 1024.64 1024.48 1024.32 1024.12 1023.87 1023.53 1023.10 1022.57 1021.95 1021.27 1020.55 1019.82 1019.10 1018.40 1017.72 1017.07 1016.42 1015.77 1015.11 1014.45 1013.78
1023.77 1024.30 1024.75 1025.11 1025.37 1025.55 1025.66 1025.74 1025.81 1025.88 1025.95 1026.04 1026.12 1026.17 1026.18 1026.12 1026.01 1025.84 1025.63 1025.40 1025.16 1024.94 1024.73 1024.53 1024.33 1024.11 1023.85 1023.51 1023.10 1022.61 1022.05 1021.44 1020.78 1020.11 1019.43 1018.75 1018.09 1017.42 1016.75 1016.06 1015.36 1014.65 1013.93
1024.29 1024.82 1025.24 1025.57 1025.79 1025.93 1026.01 1026.06 1026.10 1026.13 1026.18 1026.23 1026.28 1026.30 1026.28 1026.21 1026.08 1025.90 1025.68 1025.44 1025.18 1024.93 1024.69 1024.46 1024.22 1023.97 1023.68 1023.34 1022.95 1022.49 1021.98 1021.43 1020.84 1020.23 1019.62 1018.99 1018.37 1017.73 1017.08 1016.40 1015.71 1014.99 1014.26
1024.71 1025.21 1025.60 1025.89 1026.09 1026.20 1026.27 1026.30 1026.31 1026.33 1026.36 1026.38 1026.39 1026.38 1026.33 1026.23 1026.08 1025.88 1025.64 1025.38 1025.10 1024.82 1024.54 1024.27 1024.00 1023.71 1023.40 1023.06 1022.67 1022.24 1021.77 1021.27 1020.74 1020.20 1019.65 1019.09 1018.53 1017.94 1017.34 1016.72 1016.07 1015.39 1014.69
1025.05 1025.52 1025.87 1026.14 1026.31 1026.41 1026.47 1026.50 1026.51 1026.51 1026.52 1026.51 1026.48 1026.43 1026.33 1026.19 1026.01 1025.78 1025.51 1025.23 1024.93 1024.63 1024.33 1024.03 1023.72 1023.41 1023.07 1022.71 1022.33 1021.91 1021.47 1021.01 1020.53 1020.05 1019.56 1019.07 1018.58 1018.06 1017.53 1016.98 1016.40 1015.79 1015.15
1025.37 1025.79 1026.12 1026.35 1026.51 1026.61 1026.67 1026.70 1026.71 1026.70 1026.68 1026.63 1026.55 1026.44 1026.29 1026.10 1025.87 1025.60 1025.31 1025.01 1024.70 1024.38 1024.07 1023.75 1023.43 1023.10 1022.75 1022.38 1022.00 1021.59 1021.17 1020.74 1020.31 1019.87 1019.44 1019.00 1018.57 1018.12 1017.66 1017.18 1016.68 1016.15 1015.59
1025.68 1026.07 1026.36 1026.58 1026.73 1026.83 1026.89 1026.92 1026.92 1026.89 1026.83 1026.73 1026.59 1026.41 1026.19 1025.93 1025.65 1025.34 1025.02 1024.70 1024.39 1024.08 1023.77 1023.46 1023.15 1022.82 1022.48 1022.12 1021.74 1021.35 1020.95 1020.55 1020.15 1019.75 1019.35 1018.96 1018.57 1018.18 1017.78 1017.36 1016.93 1016.47 1016.00
1026.02 1026.37 1026.64 1026.83 1026.98 1027.07 1027.13 1027.15 1027.13 1027.06 1026.95 1026.78 1026.56 1026.30 1025.99 1025.66 1025.32 1024.98 1024.64 1024.31 1024.01 1023.72 1023.44 1023.16 1022.88 1022.58 1022.27 1021.94 1021.59 1021.23 1020.86 1020.49 1020.12 1019.75 1019.39 1019.03 1018.67 1018.31 1017.95 1017.58 1017.20 1016.80 1016.39
1026.38 1026.70 1026.94 1027.12 1027.26 1027.34 1027.39 1027.38 1027.32 1027.20 1027.01 1026.76 1026.45 1026.09 1025.69 1025.29 1024.88 1024.50 1024.14 1023.83 1023.54 1023.29 1023.06 1022.84 1022.61 1022.37 1022.12 1021.84 1021.55 1021.23 1020.91 1020.58 1020.25 1019.92 1019.58 1019.26 1018.92 1018.58 1018.24 1017.89 1017.54 1017.18 1016.82
1026.75 1027.04 1027.26 1027.43 1027.55 1027.62 1027.64 1027.59 1027.48 1027.29 1027.01 1026.66 1026.25 1025.78 1025.30 1024.82 1024.36 1023.94 1023.58 1023.27 1023.02 1022.82 1022.64 1022.49 1022.34 1022.18 1022.00 1021.80 1021.58 1021.34 1021.09 1020.82 1020.54 1020.25 1019.96 1019.66 1019.35 1019.02 1018.69 1018.36 1018.01 1017.67 1017.34
1027.10 1027.37 1027.57 1027.72 1027.82 1027.87 1027.86 1027.77 1027.59 1027.31 1026.95 1026.50 1025.98 1025.42 1024.86 1024.30 1023.79 1023.34 1022.98 1022.69 1022.47 1022.32 1022.21 1022.13 1022.06 1021.99 1021.91 1021.80 1021.67 1021.52 1021.35 1021.16 1020.95 1020.73 1020.49 1020.22 1019.94 1019.64 1019.32 1018.99 1018.65 1018.31 1017.98
1027.41 1027.66 1027.85 1027.99 1028.07 1028.10 1028.04 1027.90 1027.65 1027.30 1026.85 1026.31 1025.70 1025.06 1024.42 1023.81 1023.26 1022.79 1022.42 1022.14 1021.96 1021.86 1021.81 1021.80 1021.81 1021.83 1021.84 1021.83 1021.80 1021.75 1021.67 1021.58 1021.46 1021.31 1021.13 1020.92 1020.67 1020.40 1020.10 1019.77 1019.44 1019.10 1018.78
1027.66 1027.89 1028.07 1028.20 1028.27 1028.27 1028.18 1027.99 1027.69 1027.27 1026.75 1026.14 1025.46 1024.76 1024.07 1023.42 1022.85 1022.37 1021.99 1021.73 1021.58 1021.50 1021.50 1021.55 1021.63 1021.72 1021.81 1021.89 1021.95 1022.00 1022.03 1022.03 1022.00 1021.94 1021.83 1021.68 1021.49 1021.25 1020.97 1020.67 1020.34 1020.02 1019.70
1027.83 1028.06 1028.24 1028.36 1028.42 1028.40 1028.29 1028.06 1027.71 1027.25 1026.68 1026.03 1025.31 1024.58 1023.86 1023.20 1022.61 1022.13 1021.76 1021.51 1021.37 1021.32 1021.35 1021.43 1021.55 1021.69 1021.85 1022.00 1022.15 1022.29 1022.40 1022.50 1022.55 1022.57 1022.54 1022.45 1022.31 1022.12 1021.88 1021.60 1021.30 1020.98 1020.68
1027.92 1028.15 1028.33 1028.45 1028.51 1028.48 1028.34 1028.10 1027.73 1027.25 1026.66 1025.99 1025.27 1024.53 1023.82 1023.16 1022.59 1022.12 1021.76 1021.51 1021.38 1021.34 1021.37 1021.47 1021.61 1021.79 1021.98 1022.19 1022.40 1022.60 1022.78 1022.95 1023.08 1023.16 1023.19 1023.17 1023.08 1022.93 1022.73 1022.49 1022.22 1021.93 1021.64
1027.93 1028.16 1028.35 1028.48 1028.53 1028.50 1028.36 1028.10 1027.73 1027.25 1026.67 1026.01 1025.31 1024.61 1023.93 1023.30 1022.75 1022.30 1021.96 1021.73 1021.60 1021.55 1021.59 1021.68 1021.83 1022.01 1022.22 1022.45 1022.69 1022.93 1023.16 1023.37 1023.55 1023.68 1023.76 1023.78 1023.73 1023.62 1023.46 1023.26 1023.02 1022.76 1022.51
1027.86 1028.10 1028.29 1028.42 1028.48 1028.44 1028.30 1028.06 1027.70 1027.23 1026.68 1026.07 1025.42 1024.76 1024.14 1023.56 1023.06 1022.65 1022.33 1022.10 1021.97 1021.92 1021.94 1022.02 1022.16 1022.33 1022.54 1022.77 1023.01 1023.26 1023.51 1023.74 1023.94 1024.10 1024.20 1024.25 1024.23 1024.15 1024.02 1023.85 1023.65 1023.44 1023.22
1027.70 1027.94 1028.14 1028.28 1028.34 1028.31 1028.18 1027.94 1027.60 1027.17 1026.67 1026.11 1025.52 1024.94 1024.38 1023.87 1023.42 1023.06 1022.77 1022.57 1022.44 1022.38 1022.38 1022.44 1022.55 1022.70 1022.88 1023.09 1023.32 1023.56 1023.80 1024.03 1024.23 1024.39 1024.50 1024.55 1024.55 1024.49 1024.39 1024.25 1024.09 1023.92 1023.74
1027.46 1027.71 1027.91 1028.05 1028.11 1028.08 1027.96 1027.74 1027.43 1027.04 1026.59 1026.09 1025.58 1025.07 1024.59 1024.16 1023.78 1023.46 1023.21 1023.02 1022.90 1022.83 1022.82 1022.85 1022.92 1023.04 1023.19 1023.37 1023.57 1023.78 1023.99 1024.20 1024.38 1024.52 1024.62 1024.67 1024.68 1024.64 1024.56 1024.46 1024.34 1024.20 1024.07
1027.14 1027.39 1027.59 1027.73 1027.79 1027.76 1027.64 1027.44 1027.16 1026.82 1026.42 1025.99 1025.56 1025.13 1024.73 1024.36 1024.05 1023.78 1023.56 1023.39 1023.28 1023.20 1023.17 1023.17 1023.21 1023.29 1023.39 1023.53 1023.69 1023.86 1024.04 1024.21 1024.36 1024.48 1024.57 1024.62 1024.63 1024.61 1024.56 1024.49 1024.41 1024.33 1024.24
1026.75 1027.01 1027.21 1027.34 1027.39 1027.36 1027.26 1027.07 1026.82 1026.51 1026.17 1025.81 1025.44 1025.09 1024.76 1024.46 1024.20 1023.97 1023.79 1023.64 1023.52 1023.43 1023.38 1023.35 1023.35 1023.39 1023.45 1023.54 1023.65 1023.78 1023.91 1024.04 1024.16 1024.26 1024.34 1024.39 1024.42 1024.43 1024.41 1024.39 1024.36 1024.33 1024.29
1026.31 1026.57 1026.77 1026.89 1026.94 1026.92 1026.82 1026.65 1026.43 1026.16 1025.87 1025.56 1025.26 1024.96 1024.69 1024.45 1024.23 1024.04 1023.87 1023.73 1023.60 1023.50 1023.42 1023.36 1023.32 1023.31 1023.32 1023.36 1023.42 1023.50 1023.59 1023.69 1023.79 1023.88 1023.95 1024.02 1024.07 1024.11 1024.14 1024.18 1024.20 1024.23 1024.25
1025.85 1026.10 1026.30 1026.42 1026.47 1026.45 1026.35 1026.21 1026.01 1025.78 1025.53 1025.27 1025.01 1024.77 1024.54 1024.33 1024.14 1023.97 1023.81 1023.66 1023.53 1023.40 1023.29 1023.19 1023.11 1023.05 1023.01 1023.00 1023.01 1023.04 1023.09 1023.16 1023.23 1023.31 1023.40 1023.48 1023.57 1023.66 1023.75 1023.85 1023.94 1024.03 1024.11
Thickness
5623 5620 5617 5613 5609 5605 5600 5595 5591 5587 5583 5579 5575 5571 5567 5563 5559 5555 5551 5547 5543 5539 5534 5530 5527 5522 5519 5515 5510 5506 5501 5496 5503 5525 5521 5512 5505 5499 5496 5491 5487 5483 5480
5608 5605 5601 5597 5593 5589 5584 5580 5576 5572 5568 5564 5560 5556 5551 5547 5543 5539 5535 5531 5527 5523 5519 5515 5511 5507 5503 5499 5494 5490 5486 5481 5478 5490 5502 5494 5487 5480 5476 5473 5470 5465 5462
5594 5590 5585 5580 5576 5572 5567 5563 5560 5556 5552 5548 5544 5540 5535 5531 5527 5523 5519 5515 5511 5507 5503 5499 5495 5491 5487 5482 5478 5473 5469 5464 5458 5457 5469 5471 5467 5460 5454 5453 5449 5445 5442
5578 5573 5568 5563 5559 5555 5551 5547 5543 5539 5535 5531 5528 5523 5519 5515 5511 5507 5503 5500 5496 5492 5487 5483 5479 5474 5469 5465 5460 5455 5449 5444 5439 5435 5438 5442 5442 5438 5429 5426 5426 5424 5420
5561 5556 5550 5545 5541 5537 5533 5529 5526 5522 5518 5514 5511 5507 5503 5499 5495 5491 5488 5484 5480 5476 5472 5467 5462 5457 5451 5445 5440 5435 5429 5424 5419 5414 5414 5414 5415 5411 5404 5399 5395 5398 5400
5543 5537 5532 5527 5523 5519 5516 5512 5509 5506 5502 5498 5494 5490 5486 5482 5479 5475 5472 5468 5464 5460 5456 5452 5446 5440 5434 5428 5422 5415 5408 5401 5396 5391 5390 5388 5387 5382 5377 5372 5368 5367 5373
5523 5518 5514 5510 5506 5503 5499 5496 5492 5489 5485 5481 5477 5474 5469 5465 5463 5459 5455 5451 5447 5442 5438 5434 5429 5423 5415 5410 5405 5399 5391 5381 5373 5366 5364 5363 5359 5356 5350 5348 5344 5340 5341
5506 5500 5496 5493 5489 5486 5483 5479 5475 5472 5468 5464 5461 5457 5453 5449 5446 5442 5438 5434 5430 5425 5419 5414 5409 5404 5396 5390 5386 5381 5374 5366 5356 5348 5342 5338 5334 5330 5324 5320 5318 5319 5320
5488 5483 5479 5476 5472 5469 5465 5461 5458 5455 5451 5448 5444 5440 5436 5432 5428 5424 5420 5416 5412 5407 5402 5395 5388 5383 5377 5370 5364 5360 5356 5349 5340 5331 5324 5318 5313 5309 5303 5299 5298 5297 5300
5471 5466 5463 5459 5455 5451 5448 5444 5441 5437 5435 5432 5428 5423 5419 5415 5410 5406 5401 5396 5393 5390 5385 5377 5369 5362 5356 5348 5341 5335 5332 5329 5322 5316 5308 5301 5295 5290 5285 5280 5277 5276 5277
5453 5449 5445 5442 5438 5434 5431 5427 5424 5421 5418 5415 5412 5408 5403 5398 5392 5386 5380 5374 5370 5367 5363 5358 5351 5342 5336 5328 5320 5313 5308 5304 5299 5294 5289 5284 5278 5273 5269 5264 5260 5257 5257
5436 5432 5428 5424 5421 5418 5414 5410 5407 5403 5400 5397 5394 5390 5385 5379 5373 5367 5361 5354 5349 5344 5341 5336 5330 5323 5316 5309 5301 5294 5288 5282 5277 5272 5269 5264 5260 5256 5252 5248 5245 5242 5240
5420 5415 5411 5408 5405 5401 5397 5393 5388 5384 5381 5378 5373 5371 5367 5361 5354 5348 5342 5336 5330 5324 5320 5315 5309 5303 5297 5290 5282 5275 5268 5262 5257 5253 5249 5246 5242 5239 5237 5235 5233 5230 5228
5403 5399 5396 5392 5388 5383 5378 5374 5369 5364 5360 5356 5352 5349 5347 5343 5336 5330 5325 5319 5312 5306 5301 5296 5290 5284 5276 5270 5262 5255 5249 5243 5238 5234 5231 5229 5227 5225 5223 5221 5219 5218 5217
5386 5382 5378 5374 5369 5364 5360 5355 5351 5346 5340 5335 5332 5328 5325 5324 5318 5311 5305 5301 5294 5288 5283 5278 5271 5264 5257 5250 5243 5236 5231 5226 5221 5218 5216 5214 5213 5211 5209 5208 5206 5204 5201
5369 5363 5358 5354 5349 5345 5340 5336 5332 5329 5324 5319 5314 5309 5306 5302 5299 5293 5287 5281 5275 5268 5262 5256 5249 5241 5235 5229 5223 5218 5213 5209 5205 5203 5201 5199 5198 5196 5195 5194 5192 5189 5187
5348 5343 5338 5334 5329 5324 5320 5316 5313 5310 5304 5299 5295 5290 5286 5282 5278 5273 5267 5262 5255 5247 5240 5233 5226 5220 5214 5209 5204 5200 5196 5193 5190 5188 5187 5185 5184 5183 5181 5180 5178 5176 5173
5327 5323 5318 5313 5308 5303 5299 5295 5291 5288 5285 5281 5275 5270 5267 5262 5258 5252 5246 5240 5233 5224 5217 5211 5205 5200 5195 5190 5186 5183 5181 5178 5176 5174 5172 5171 5170 5169 5167 5165 5163 5161 5159
5309 5304 5299 5294 5289 5284 5280 5276 5272 5268 5265 5262 5258 5253 5247 5242 5237 5231 5224 5215 5209 5203 5196 5190 5185 5181 5177 5173 5171 5168 5166 5165 5162 5160 5159 5157 5156 5154 5153 5151 5150 5148 5146
5290 5286 5281 5275 5270 5266 5262 5257 5253 5249 5245 5241 5237 5233 5228 5223 5216 5209 5202 5194 5188 5182 5177 5172 5167 5164 5161 5158 5156 5155 5153 5151 5149 5147 5145 5144 5142 5141 5139 5137 5136 5133 5131
5273 5268 5264 5258 5253 5249 5244 5240 5235 5231 5226 5222 5218 5213 5211 5204 5197 5190 5183 5176 5169 5164 5159 5155 5152 5149 5147 5145 5143 5141 5140 5138 5136 5134 5132 5130 5128 5127 5125 5123 5121 5119 5117
5256 5251 5246 5241 5237 5232 5227 5223 5218 5214 5209 5204 5200 5194 5191 5184 5178 5172 5166 5159 5153 5148 5144 5141 5138 5136 5134 5132 5130 5129 5127 5126 5124 5122 5120 5117 5115 5113 5111 5109 5107 5105 5102
5240 5235 5230 5225 5220 5216 5211 5206 5202 5197 5192 5187 5182 5177 5172 5166 5161 5155 5150 5144 5139 5135 5131 5129 5126 5125 5123 5121 5119 5117 5115 5113 5111 5109 5107 5104 5102 5100 5097 5095 5092 5090 5087
5224 5219 5214 5209 5204 5200 5195 5190 5186 5181 5176 5171 5166 5161 5156 5151 5146 5141 5135 5131 5127 5123 5120 5118 5116 5114 5112 5111 5109 5107 5105 5103 5100 5098 5095 5092 5090 5087 5084 5081 5079 5076 5074
5208 5203 5198 5193 5189 5184 5180 5175 5170 5165 5161 5156 5151 5147 5142 5137 5132 5127 5123 5119 5115 5113 5110 5108 5106 5104 5103 5101 5099 5097 5095 5092 5090 5087 5085 5081 5078 5075 5072 5069 5066 5063 5060
5192 5187 5183 5178 5174 5169 5164 5160 5155 5151 5146 5142 5138 5133 5128 5124 5119 5115 5111 5108 5106 5104 5101 5099 5097 5096 5094 5092 5090 5088 5086 5083 5081 5078 5075 5071 5067 5063 5060 5057 5054 5050 5047